User: anonymous   Login
Location: Regona
(45.2000°N, 9.8167°E)
Time: 03:18:15
(UTC+00:00)
Language:

Cosmos 1709 Rocket - Orbit

View from above orbital plane
View from above orbital plane
View from above satellite
View from above satellite

Ground track
Ground track

The orbit data is extracted from the following two-line orbital elements,

1 16369U 85116B   20221.74544455 +.00000131 +00000-0 +11705-3 0  9993
2 16369 082.9361 214.0166 0036268 182.0737 350.8656 13.76861325739722
Epoch (UTC): 08 August 2020 17:53:26
Eccentricity: 0.0036268
inclination: 82.9361°
perigee height: 948 km
apogee height: 1002 km
right ascension of ascending node: 214.0166°
argument of perigee: 182.0737°
revolutions per day: 13.76861325
mean anomaly at epoch: 350.8656°
orbit number at epoch: 73972

The dashed part of the orbit path shows where the satellite is in the earth's shadow,  

DLR